Location: 北京
(39.9018°N, 116.3944°E)
Time: 16:23:08
(UTC+08:00)

Tiangong - Visible Passes

Search period start: 26 June 2022 00:00
Search period end: 06 July 2022 00:00
Orbit: 384 x 388 km, 41.5° (Epoch: 25 June)

Date Brightness Start Highest point End Pass type
(mag) Time Alt. Az. Time Alt. Az. Time Alt. Az.
26 Jun 0.9 21:12:58 10° WSW 21:16:08 83° S 21:18:56 13° ENE visible
26 Jun 3.3 22:49:57 10° W 22:51:12 21° WNW 22:51:12 21° WNW visible
27 Jun 1.2 20:13:51 10° WSW 20:16:57 56° SSE 20:20:05 10° E visible
27 Jun 1.4 21:50:41 10° W 21:53:51 64° N 21:54:54 37° ENE visible
28 Jun 1.3 20:51:24 10° W 20:54:34 74° N 20:57:45 10° ENE visible
28 Jun 2.2 22:28:23 10° WNW 22:30:38 41° WNW 22:30:38 41° WNW visible
29 Jun 1.4 21:29:07 10° W 21:32:16 63° N 21:34:00 24° ENE visible
29 Jun 4.1 23:06:01 10° W 23:06:14 11° W 23:06:14 11° W visible
30 Jun 1.5 20:29:47 10° W 20:32:56 63° N 20:36:05 10° E visible
30 Jun 1.3 22:06:44 10° WNW 22:09:31 65° WNW 22:09:31 65° WNW visible
01 Jul 1.2 21:07:25 10° WNW 21:10:36 72° N 21:12:45 19° E visible
01 Jul 3.8 22:44:23 10° W 22:44:57 14° W 22:44:57 14° W visible
02 Jul 1.1 21:44:58 10° W 21:48:07 60° SSW 21:48:09 60° SSW visible
03 Jul 1.0 20:45:36 10° WNW 20:48:47 87° SSW 20:51:20 15° ESE visible
03 Jul 3.6 22:22:50 10° W 22:23:33 14° WSW 22:23:33 14° WSW visible
04 Jul 1.8 21:23:12 10° W 21:26:10 36° SSW 21:26:44 33° S visible
05 Jul 1.3 20:23:43 10° W 20:26:50 59° SSW 20:29:55 10° ESE visible
05 Jul 3.8 22:01:43 10° WSW 22:02:07 11° WSW 22:02:07 11° WSW visible
